Kelso-Longview, WA
on Monday, December 31, 2012

Monday
Previous Day Next Day
Daily Summary
 ActualAverage (KSPB)Record (KSPB)
Temperature
Mean Temperature °F °F  
Max Temperature 33°F °F 50°F (1998)
Min Temperature 28°F °F 20°F (2010)
Degree Days
Heating Degree Days 34    
Month to date heating degree days  
Since 1 July heating degree days  
Cooling Degree Days 0    
Month to date cooling degree days  
Year to date cooling degree days  
Moisture
Dew Point 28°F   
Average Humidity 84    
Maximum Humidity 93    
Minimum Humidity 75    
Precipitation
Precipitation 0.08 in in 0.83 in (2004)
Month to date precipitation  
Year to date precipitation  
Wind
Wind Speed 2 mph   
Max Wind Speed 7 mph   
Max Gust Speed mph   
Visibility 8 miles   
Events     

Key: T is trace of precipitation, MM is missing value
Source: NWS Daily Summary
Time(PST)TemperatureDew PointHumidity Pressure Visibility Wind DirectionWind SpeedGust SpeedPrecipitationEvents Conditions
12:15 AM 28.4°F 24.8°F 86% 30.31 in 10.0 miles Calm Calm - N/A   Clear
12:35 AM 28.4°F 24.8°F 86% 30.31 in 9.0 miles Calm Calm - N/A   Clear
12:55 AM 28.4°F 26.6°F 93% 30.31 in 10.0 miles Calm Calm - N/A   Scattered Clouds
1:15 AM 28.4°F 26.6°F 93% 30.31 in 10.0 miles Calm Calm - N/A   Clear
1:35 AM 28.4°F 26.6°F 93% 30.31 in 10.0 miles Calm Calm - N/A   Clear
1:55 AM 30.2°F 28.4°F 93% 30.31 in 10.0 miles SE 3.5 mph - N/A   Clear
2:15 AM 30.2°F 28.4°F 93% 30.32 in 10.0 miles Calm Calm - N/A   Mostly Cloudy
2:35 AM 30.2°F 28.4°F 93% 30.32 in 10.0 miles Calm Calm - N/A   Scattered Clouds
2:55 AM 30.2°F 28.4°F 93% 30.32 in 10.0 miles Calm Calm - N/A   Clear
3:15 AM 30.2°F 28.4°F 93% 30.31 in 10.0 miles ESE 3.5 mph - N/A   Clear
3:35 AM 30.2°F 28.4°F 93% 30.30 in 10.0 miles Calm Calm - N/A   Scattered Clouds
4:15 AM 30.2°F 26.6°F 86% 30.29 in 10.0 miles Calm Calm - N/A   Partly Cloudy
4:35 AM 30.2°F 26.6°F 86% 30.29 in 10.0 miles ESE 3.5 mph - N/A   Clear
4:55 AM 30.2°F 26.6°F 86% 30.28 in 10.0 miles Calm Calm - N/A   Clear
5:15 AM 30.2°F 26.6°F 86% 30.27 in 10.0 miles SE 5.8 mph - N/A   Clear
5:35 AM 32.0°F 26.6°F 80% 30.27 in 10.0 miles SE 6.9 mph - N/A   Clear
5:55 AM 32.0°F 26.6°F 80% 30.27 in 10.0 miles SSE 3.5 mph - N/A   Partly Cloudy
6:15 AM 32.0°F 26.6°F 80% 30.27 in 10.0 miles SE 5.8 mph - N/A   Mostly Cloudy
6:35 AM 32.0°F 26.6°F 80% 30.28 in 10.0 miles SSE 5.8 mph - N/A   Overcast
6:55 AM 33.8°F 26.6°F 75% 30.27 in 10.0 miles ESE 3.5 mph - N/A   Overcast
7:15 AM 33.8°F 26.6°F 75% 30.28 in 10.0 miles SSE 6.9 mph - N/A   Overcast
7:35 AM 33.8°F 26.6°F 75% 30.29 in 10.0 miles SE 5.8 mph - N/A   Overcast
7:55 AM 33.8°F 26.6°F 75% 30.29 in 10.0 miles SE 5.8 mph - N/A   Overcast
8:15 AM 33.8°F 26.6°F 75% 30.30 in 10.0 miles SSE 3.5 mph - N/A   Overcast
8:35 AM 33.8°F 26.6°F 75% 30.30 in 10.0 miles SSE 4.6 mph - N/A   Overcast
8:55 AM 33.8°F 26.6°F 75% 30.31 in 10.0 miles SE 4.6 mph - N/A   Overcast
9:15 AM 33.8°F 26.6°F 75% 30.30 in 10.0 miles SE 6.9 mph - N/A   Overcast
9:35 AM 33.8°F 26.6°F 75% 30.31 in 10.0 miles SE 5.8 mph - N/A   Overcast
9:55 AM 33.8°F 26.6°F 75% 30.32 in 10.0 miles SSE 3.5 mph - N/A   Overcast
10:15 AM 33.8°F 26.6°F 75% 30.32 in 10.0 miles Calm Calm - N/A   Overcast
10:35 AM 33.8°F 26.6°F 75% 30.33 in 10.0 miles SE 4.6 mph - N/A   Overcast
10:55 AM 33.8°F 26.6°F 75% 30.33 in 10.0 miles SE 3.5 mph - N/A   Overcast
11:15 AM 33.8°F 26.6°F 75% 30.33 in 9.0 miles ESE 3.5 mph - N/A   Overcast
11:35 AM 33.8°F 26.6°F 75% 30.33 in 10.0 miles Calm Calm - N/A   Overcast
11:55 AM 33.8°F 26.6°F 75% 30.32 in 3.0 miles Calm Calm - N/A   Overcast
12:15 PM 33.8°F 28.4°F 81% 30.32 in 1.2 miles ESE 3.5 mph - N/A   Overcast
12:35 PM 33.8°F 28.4°F 81% 30.31 in 1.0 miles Calm Calm - N/A   Overcast
12:55 PM 33.8°F 28.4°F 81% 30.30 in 2.0 miles SSE 3.5 mph - N/A   Overcast
1:15 PM 33.8°F 30.2°F 87% 30.31 in 1.2 miles SSE 3.5 mph - N/A   Overcast
1:35 PM 33.8°F 30.2°F 87% 30.31 in 1.0 miles Calm Calm - 0.01 in   Overcast
1:55 PM 33.8°F 30.2°F 87% 30.32 in 1.0 miles Calm Calm - 0.01 in   Overcast
2:35 PM 33.8°F 30.2°F 87% 30.33 in 1.2 miles Calm Calm - 0.02 in   Overcast
2:55 PM 33.8°F 30.2°F 87% 30.33 in 1.2 miles Calm Calm - 0.03 in   Overcast
3:15 PM 33.8°F 30.2°F 87% 30.33 in 1.8 miles Calm Calm - 0.01 in   Overcast
3:35 PM 33.8°F 30.2°F 87% 30.34 in 3.0 miles Calm Calm - 0.03 in   Overcast
3:55 PM 33.8°F 30.2°F 87% 30.34 in 5.0 miles Calm Calm - 0.03 in   Overcast
4:15 PM 33.8°F 30.2°F 87% 30.34 in 6.0 miles Calm Calm - 0.01 in   Overcast
4:35 PM 33.8°F 30.2°F 87% 30.34 in 5.0 miles Calm Calm - 0.01 in   Mostly Cloudy
4:55 PM 33.8°F 30.2°F 87% 30.34 in 7.0 miles SE 3.5 mph - 0.01 in   Scattered Clouds
5:15 PM 33.8°F 30.2°F 87% 30.34 in 10.0 miles Calm Calm - N/A   Overcast
5:35 PM 33.8°F 30.2°F 87% 30.35 in 10.0 miles Calm Calm - N/A   Overcast
5:55 PM 33.8°F 30.2°F 87% 30.36 in 9.0 miles ESE 4.6 mph - N/A   Overcast
6:15 PM 33.8°F 30.2°F 87% 30.36 in 8.0 miles Calm Calm - N/A   Overcast
6:35 PM 33.8°F 30.2°F 87% 30.37 in 10.0 miles Calm Calm - N/A   Overcast
6:55 PM 33.8°F 30.2°F 87% 30.38 in 7.0 miles Calm Calm - N/A   Overcast
7:15 PM 33.8°F 30.2°F 87% 30.39 in 10.0 miles East 3.5 mph - N/A   Overcast
7:35 PM 33.8°F 30.2°F 87% 30.38 in 9.0 miles East 5.8 mph - N/A   Overcast
7:55 PM 33.8°F 30.2°F 87% 30.39 in 10.0 miles Calm Calm - N/A   Overcast
8:15 PM 33.8°F 30.2°F 87% 30.40 in 10.0 miles NNE 3.5 mph - N/A   Overcast
8:35 PM 33.8°F 30.2°F 87% 30.41 in 5.0 miles Calm Calm - N/A   Overcast
8:55 PM 33.8°F 30.2°F 87% 30.41 in 5.0 miles Calm Calm - N/A   Overcast
9:15 PM 33.8°F 30.2°F 87% 30.41 in 4.0 miles Calm Calm - N/A   Mostly Cloudy
9:35 PM 32.0°F 28.4°F 87% 30.41 in 3.0 miles Calm Calm - N/A   Scattered Clouds
9:55 PM 32.0°F 28.4°F 87% 30.42 in 3.0 miles Calm Calm - N/A   Mostly Cloudy
10:15 PM 32.0°F 30.2°F 93% 30.43 in 4.0 miles Calm Calm - N/A   Overcast
10:35 PM 32.0°F 30.2°F 93% 30.44 in 4.0 miles NNW 5.8 mph - N/A   Overcast
10:55 PM 33.8°F 30.2°F 87% 30.44 in 7.0 miles Calm Calm - N/A   Overcast
11:15 PM 33.8°F 30.2°F 87% 30.44 in 6.0 miles Calm Calm - N/A   Overcast
11:35 PM 33.8°F 30.2°F 87% 30.45 in 7.0 miles Calm Calm - N/A   Overcast
11:55 PM 33.8°F 30.2°F 87% 30.44 in 9.0 miles ESE 3.5 mph - N/A   Overcast
Moon Phase
Dec. 31 Jan. 04 Jan. 11 Jan. 18 Jan. 26
Sunrise:07:54 AM (PST) Moon Rise:08:25 PM (PST)12/31
Sunset:04:36 PM (PST) Moon Set:09:26 AM (PST)12/31

Copyright © 2014 The Weather Underground, Inc.